Theta_e
321 321 321 321 321 321 321 321 321 321 321 321 321 321 321 321 322 322 322 322 321 322 322 322 323 323 324 325 325 326 324 321 320 318 318 323 338 346 353 357 352 364 369 347 336 338 337 341 345 354 346 345 343 338 348 346 343 332 322 318 313 315 317 322 325 327 328 326 328 331 334 333 330 334 339 339 337 338 338 339 340 342 342 344 345 345 346 347
321 321 321 321 321 321 321 321 321 321 321 321 321 321 321 321 321 321 321 321 321 321 322 322 323 324 324 325 326 326 322 320 317 318 319 333 352 353 357 361 358 370 359 333 334 334 340 340 345 348 343 337 346 337 343 336 344 325 323 318 315 319 325 333 332 335 333 329 332 333 335 333 331 336 338 334 336 336 332 335 337 338 341 343 344 344 344 345
320 321 321 321 321 321 320 320 320 320 320 320 320 320 320 320 320 320 321 321 321 321 322 322 323 324 324 325 325 326 321 321 322 320 324 347 348 357 360 359 363 368 335 333 334 338 343 345 347 344 343 336 338 334 342 338 337 333 325 317 318 327 330 337 338 336 339 335 332 332 336 334 335 337 336 334 333 334 330 330 335 336 336 339 341 343 343 343
320 320 321 321 321 321 320 320 320 320 320 320 320 320 320 320 320 320 321 321 321 321 322 322 323 324 325 326 326 323 320 321 315 322 322 355 350 353 360 360 366 363 337 335 336 335 342 358 344 343 342 336 335 344 331 335 330 331 325 318 322 330 327 332 340 341 340 338 335 333 334 333 336 337 338 336 330 332 335 337 337 336 337 338 341 341 342 342
320 320 321 321 321 320 320 320 320 320 320 320 320 320 319 320 320 320 320 321 321 321 322 323 323 324 325 325 325 322 318 306 317 324 324 356 354 352 357 361 367 354 339 330 327 327 326 346 342 341 339 327 333 332 330 335 336 332 325 328 331 331 330 335 338 341 338 338 334 335 333 334 344 342 341 333 326 325 332 339 340 341 340 340 340 341 342 341
320 321 321 320 320 320 320 320 320 320 319 319 319 319 319 319 320 320 320 321 321 322 322 323 324 325 325 325 322 318 314 297 316 322 356 357 351 351 358 365 366 351 339 329 327 329 325 331 338 334 331 328 327 324 328 333 337 320 326 331 334 334 331 338 341 339 339 337 334 333 338 340 336 337 342 337 333 335 342 343 342 344 343 343 343 342 340 340
320 320 320 320 320 320 320 320 319 319 319 319 319 319 319 319 320 320 320 320 321 321 322 323 324 325 325 325 322 322 312 311 320 324 353 358 355 356 363 367 363 338 338 331 329 326 324 327 336 331 335 331 328 325 331 333 335 326 321 331 332 337 335 338 338 339 337 337 335 338 341 337 337 325 339 335 341 344 347 344 343 345 345 345 342 342 341 341
320 320 320 320 320 319 320 319 319 319 319 319 319 319 319 319 319 320 320 320 321 321 322 324 325 325 324 322 321 313 312 315 321 334 353 355 356 357 359 347 340 332 329 323 323 323 324 322 329 334 328 323 325 325 330 331 333 327 326 333 336 340 341 338 338 336 339 338 341 340 335 335 336 334 336 334 338 347 346 343 343 345 344 344 342 341 341 341
320 320 320 320 319 319 319 319 319 319 318 318 318 318 319 319 319 320 320 320 320 321 323 324 325 325 325 321 319 312 313 324 329 340 352 347 343 351 334 322 334 326 326 324 322 321 325 322 324 333 324 325 328 329 330 327 322 329 329 335 337 338 340 338 337 336 337 338 340 336 334 337 338 342 330 334 341 346 342 341 343 344 343 342 342 342 342 342
320 320 319 319 319 319 319 319 319 318 318 319 319 319 318 319 319 319 320 320 320 321 323 324 325 325 321 321 318 308 318 333 338 345 341 339 343 336 327 320 327 323 322 323 324 324 323 323 323 323 319 317 317 318 331 328 320 330 331 335 334 336 338 339 334 334 337 338 338 332 332 335 341 335 322 336 345 348 341 340 341 341 341 343 343 343 344 343
320 319 319 319 319 319 319 319 318 318 319 319 319 319 318 318 319 319 319 320 321 322 323 325 325 324 320 323 309 308 327 335 341 341 338 343 333 321 317 318 324 322 323 322 325 328 327 324 320 320 317 314 314 313 323 328 330 330 332 334 334 337 337 338 335 333 336 335 337 334 331 337 339 333 325 335 344 343 340 342 340 339 340 341 343 344 344 344
319 319 319 319 319 318 318 318 318 318 319 319 319 318 318 318 318 319 319 320 321 322 324 324 325 322 320 321 310 312 325 324 344 341 341 335 325 320 317 318 324 324 324 322 326 327 324 322 321 318 309 317 310 314 319 330 332 331 333 325 329 332 329 335 333 336 334 332 338 337 330 327 331 328 333 340 341 342 340 341 340 339 339 340 342 343 343 344
319 319 319 319 318 318 318 318 318 319 319 318 318 318 318 318 319 319 320 321 322 323 324 325 325 323 322 310 315 323 325 325 324 336 336 331 325 322 318 319 321 325 327 326 325 325 324 322 322 316 319 317 312 308 318 318 319 333 331 325 323 323 320 329 338 338 331 335 338 335 312 315 327 333 337 340 338 339 338 337 339 339 339 339 340 341 341 343
319 319 318 317 317 317 318 318 318 318 318 317 317 317 317 318 319 320 321 321 323 324 324 326 323 320 320 314 328 329 328 326 322 326 326 328 323 322 321 321 321 323 327 327 326 323 323 319 321 318 321 315 310 318 314 314 326 321 326 323 316 312 311 325 334 335 328 337 337 333 311 311 321 332 337 338 339 337 334 335 336 338 337 338 340 340 340 343
318 318 318 317 317 317 318 318 318 317 317 317 316 317 317 318 319 320 322 322 323 324 325 325 322 319 316 318 327 330 357 323 315 315 318 321 322 322 321 322 322 324 327 327 325 324 323 321 318 315 311 318 316 311 307 306 317 322 315 308 313 308 307 322 336 333 325 332 338 329 314 314 320 328 337 337 338 335 333 334 336 337 336 339 339 341 342 343
318 318 318 317 317 317 318 317 317 317 316 316 316 316 317 318 320 321 322 323 325 325 324 319 320 321 313 310 320 337 316 311 311 314 315 319 319 320 323 323 325 326 326 324 324 324 321 319 313 312 313 313 310 305 302 303 306 319 310 309 309 309 308 318 326 334 331 331 334 327 311 315 317 326 336 339 337 335 333 334 336 337 337 339 339 340 341 342
318 318 317 317 317 317 317 316 316 316 316 316 316 316 317 318 321 323 324 325 323 325 321 321 323 322 310 321 330 317 311 310 314 315 317 318 319 320 320 323 322 322 322 320 319 321 318 316 315 313 314 308 307 305 300 297 300 309 314 307 311 309 310 311 321 331 332 330 324 330 322 320 318 326 335 338 337 334 333 333 334 337 337 339 339 340 340 340
317 317 317 317 317 317 316 316 316 316 316 316 316 317 317 322 324 323 323 325 324 322 321 324 322 315 311 324 315 315 314 314 313 314 316 317 319 317 317 316 317 315 316 313 315 313 314 308 312 303 304 305 305 301 299 295 301 304 307 306 303 310 315 312 313 320 330 329 323 325 325 325 326 326 332 336 337 333 332 332 333 335 336 338 340 339 340 339
317 317 317 317 316 316 316 316 316 316 316 316 317 320 322 322 320 315 314 322 319 316 310 315 313 302 301 313 321 317 316 315 318 318 315 318 319 318 318 318 316 313 307 308 303 311 310 306 306 302 299 300 302 304 301 304 307 307 310 305 300 299 303 311 318 325 329 325 322 322 319 322 325 323 329 333 335 332 332 333 334 335 335 337 339 339 339 339
317 316 317 316 315 316 316 316 316 315 316 313 312 317 320 315 316 319 320 319 315 320 321 319 319 319 316 317 316 316 320 318 315 316 318 319 318 316 314 314 312 311 309 302 303 305 309 301 299 299 301 304 305 306 307 308 307 305 304 305 302 301 301 310 319 323 330 324 322 322 322 321 322 323 327 329 333 332 331 332 333 333 334 336 337 338 338 339
316 316 316 315 316 316 316 316 316 316 315 312 310 319 320 317 306 305 312 314 317 318 317 319 320 317 316 318 316 315 311 313 315 314 314 320 315 312 308 310 313 303 303 306 304 307 308 299 300 303 305 306 306 306 306 305 305 305 302 300 299 301 299 308 316 323 329 322 319 322 322 321 321 323 325 329 329 329 329 331 331 332 334 336 337 336 337 339
316 316 315 315 315 316 316 315 315 315 314 310 313 319 322 323 320 319 315 309 316 317 317 317 320 318 322 322 323 316 314 311 311 312 316 317 313 308 307 307 303 301 304 304 304 302 300 299 303 306 307 308 307 305 305 304 303 302 302 300 298 299 303 305 313 323 326 322 310 315 319 321 323 323 324 327 327 329 331 333 332 331 332 334 336 336 336 337
316 315 315 315 315 315 315 315 313 311 309 310 313 316 313 320 326 324 321 314 312 319 317 316 315 316 317 320 319 316 310 308 307 311 313 315 311 309 308 304 303 303 304 305 300 299 297 300 305 308 306 306 304 304 304 303 302 301 300 299 296 301 299 296 303 321 324 319 310 310 315 314 312 317 323 327 327 328 330 334 334 333 333 334 335 337 337 336
315 315 315 315 315 315 315 313 310 310 308 312 314 315 321 322 321 320 317 310 309 315 319 319 319 316 314 313 316 314 310 311 310 310 317 313 308 309 308 307 304 303 301 303 302 299 299 302 306 306 305 306 305 303 302 300 298 300 301 298 298 299 300 300 301 317 321 321 317 308 302 302 308 315 318 323 327 329 329 333 334 334 335 336 337 338 339 337
315 315 315 315 315 315 315 311 308 310 314 313 312 316 317 318 319 321 315 310 311 312 321 322 320 316 317 322 320 313 313 316 313 314 316 313 310 309 306 310 306 301 303 304 302 301 301 305 307 307 306 306 305 301 301 302 297 296 301 303 302 302 303 302 309 313 308 305 309 308 298 294 306 313 317 320 321 322 327 326 329 332 332 334 334 335 338 339
314 315 315 314 315 315 312 311 313 318 315 313 316 319 319 317 318 319 314 305 301 309 312 306 319 310 321 314 317 314 315 309 313 316 316 314 318 310 311 304 307 299 302 304 303 301 302 306 307 305 305 304 302 302 303 303 298 297 298 305 303 304 303 301 301 299 295 294 300 304 295 290 305 311 315 318 319 320 323 324 325 331 332 333 334 335 336 337
314 314 314 315 315 313 313 318 318 317 318 319 321 324 326 324 324 322 313 303 299 308 303 312 312 312 318 315 315 316 301 304 316 316 314 321 313 317 306 302 305 307 311 308 298 296 307 306 304 305 304 301 299 298 301 303 297 296 302 304 304 303 302 302 302 300 296 304 304 304 300 299 301 307 315 318 317 318 319 320 323 330 332 333 334 335 336 337
313 313 314 314 315 313 313 311 314 315 319 322 325 326 326 331 329 320 310 298 296 310 307 308 313 321 319 317 316 309 308 312 307 311 314 315 316 313 308 303 305 305 308 303 295 300 306 305 304 304 302 299 300 301 305 306 301 300 304 305 304 304 303 302 301 298 299 298 293 298 303 296 299 305 315 318 314 315 316 318 320 329 333 333 334 336 336 338
313 313 313 313 313 313 313 312 311 312 320 323 323 325 328 327 321 310 301 295 307 308 321 309 321 318 316 315 313 313 312 314 306 311 316 317 316 311 305 306 307 305 307 307 298 303 307 306 305 305 300 301 303 304 306 306 302 303 305 306 306 305 304 303 299 299 299 295 291 297 302 294 294 302 308 314 315 313 315 318 320 327 333 334 335 336 337 338
312 312 312 313 311 310 310 312 310 317 319 321 324 324 326 321 313 306 299 296 309 300 313 313 311 308 312 308 309 311 308 312 313 315 314 310 312 315 311 313 309 306 304 306 304 304 307 315 318 308 303 305 305 306 308 307 307 306 306 304 301 302 300 301 300 299 295 292 292 300 303 298 294 304 305 310 312 315 317 319 322 325 329 333 335 336 337 337
311 311 312 311 311 316 316 313 319 321 323 323 322 323 320 314 305 298 296 302 310 308 314 310 308 313 308 306 303 309 308 310 311 312 308 313 309 311 309 306 308 301 297 300 301 305 307 308 307 308 314 311 309 307 308 309 307 307 302 299 297 297 299 298 296 296 291 289 294 302 309 309 298 302 311 314 318 318 320 318 321 322 324 326 329 334 336 337
310 311 311 310 312 313 314 319 322 323 320 320 322 318 312 303 302 295 300 313 300 304 304 304 309 308 307 308 306 306 305 309 309 309 304 304 303 302 302 299 300 295 293 295 296 303 304 303 306 310 323 309 308 305 303 304 303 300 299 297 292 289 291 288 291 289 291 290 297 301 309 306 304 308 313 318 319 320 320 321 320 322 325 327 328 329 330 330
308 308 310 311 311 310 312 318 321 320 319 321 319 316 307 300 295 299 301 305 300 307 305 310 307 308 307 305 303 308 310 304 308 309 308 307 304 303 306 305 303 299 296 299 298 298 299 305 307 307 308 312 306 301 297 299 301 301 298 294 290 286 286 285 288 291 288 295 300 300 311 302 307 311 316 319 321 323 325 326 327 327 327 328 331 332 334 335
308 308 307 310 310 312 316 319 318 317 319 319 314 310 306 300 300 327 306 305 304 310 310 309 308 307 307 300 303 307 302 306 307 306 307 303 303 301 304 307 307 305 302 300 296 297 291 293 300 305 300 308 309 304 303 301 303 302 302 298 294 291 291 288 288 288 290 292 296 304 298 295 301 305 316 320 323 325 327 329 330 330 329 329 330 332 333 334
308 308 309 311 312 312 313 315 315 318 318 313 308 304 299 297 304 303 301 303 306 311 307 309 306 305 303 304 304 308 305 302 306 306 303 302 298 300 306 305 310 307 304 296 302 300 300 295 301 308 308 310 307 311 308 307 300 300 303 300 297 296 296 290 291 290 292 292 292 298 299 305 306 314 320 321 322 324 326 327 329 329 330 330 329 329 330 333
304 309 311 311 315 320 317 317 317 318 315 310 305 301 299 304 302 307 304 310 310 306 307 303 304 300 298 298 302 307 307 302 304 303 303 300 304 303 310 309 307 309 301 298 303 296 297 294 303 306 309 306 307 310 309 308 296 300 302 297 300 301 301 295 301 303 299 291 293 304 303 310 313 314 317 319 320 321 323 325 327 327 329 329 328 328 329 331
311 315 314 316 317 322 321 321 321 318 315 308 303 300 304 309 311 310 319 308 308 308 302 297 298 300 298 298 298 305 305 305 304 301 299 303 300 307 308 309 311 309 307 302 301 304 295 296 301 303 304 308 312 312 309 309 308 300 298 299 304 305 302 297 295 291 290 290 291 300 298 301 303 299 315 316 317 318 320 322 324 326 328 327 327 327 327 329
315 319 324 322 324 323 324 324 322 317 313 307 303 320 319 310 317 314 310 309 309 307 301 298 300 304 300 299 298 304 303 301 300 301 298 301 301 311 308 308 309 310 309 307 299 303 299 292 295 303 305 307 311 311 306 309 309 304 301 306 301 293 292 295 294 288 288 287 288 294 302 303 303 303 310 312 314 316 318 320 321 323 327 327 327 327 328 330
316 315 312 319 326 325 326 325 320 315 309 305 303 306 313 313 318 312 312 311 311 306 298 303 301 304 302 299 301 303 302 297 300 298 298 302 300 308 308 309 307 308 307 307 302 302 301 294 294 302 305 306 307 304 295 302 309 308 303 300 305 299 296 293 294 294 291 287 290 290 299 296 308 307 312 312 315 316 317 319 320 322 327 327 326 327 328 329
314 311 310 322 328 326 327 324 317 313 308 303 303 306 312 311 313 311 310 310 307 303 304 302 305 301 301 303 303 299 304 303 301 300 299 303 302 311 307 310 308 307 308 310 307 308 301 302 292 297 304 304 297 301 300 301 300 302 301 296 297 300 302 297 296 296 292 289 287 287 287 296 304 314 315 314 315 317 319 320 320 322 325 327 327 327 328 329
319 312 311 326 327 327 326 319 311 308 307 308 311 311 313 313 313 310 311 311 308 311 304 304 302 300 303 301 301 303 302 301 301 299 301 304 302 299 309 310 310 305 305 305 306 304 300 299 297 296 298 296 299 304 307 306 305 303 301 298 299 294 295 290 290 296 299 291 288 288 287 296 308 321 317 316 316 318 321 322 321 322 324 324 327 328 328 328
316 310 313 327 327 326 318 309 311 312 309 308 307 312 312 332 312 308 308 308 308 305 309 306 304 305 302 303 303 301 301 301 301 300 305 302 308 304 308 308 307 306 302 302 303 310 306 304 301 295 297 300 303 307 307 308 309 307 303 302 302 297 295 290 288 290 296 299 300 295 293 298 311 317 317 318 318 321 323 324 322 323 323 325 327 328 329 328
317 311 325 326 327 325 315 309 312 313 309 311 317 316 317 316 311 312 308 309 307 309 306 305 306 303 305 304 303 301 303 301 303 302 305 306 306 309 310 309 308 306 305 304 307 305 320 299 294 297 299 302 303 304 307 309 308 304 304 305 303 300 301 297 294 297 296 299 294 292 292 299 310 317 318 319 321 322 323 323 323 324 324 325 326 327 328 329
316 314 317 327 327 323 312 306 306 307 310 314 315 315 318 312 310 310 308 310 307 307 305 306 306 307 305 306 304 302 304 297 304 303 303 306 305 311 309 310 309 307 307 306 303 305 298 299 296 290 287 291 294 298 299 305 305 301 301 302 304 304 303 303 302 299 296 298 298 291 288 296 307 319 318 319 321 322 322 324 324 323 324 326 326 327 328 329
316 317 317 322 327 320 310 309 309 306 308 309 310 310 311 311 311 310 309 312 310 306 305 304 308 306 305 306 305 306 309 301 299 303 304 306 309 314 310 309 312 309 315 314 326 307 300 301 293 286 285 284 284 285 289 293 298 302 303 302 304 303 302 301 297 296 291 297 301 294 293 301 309 315 316 318 318 318 320 324 326 325 324 325 326 326 327 329
310 305 312 315 319 318 315 317 314 310 308 308 307 308 311 306 310 312 310 309 310 308 306 308 306 305 305 303 301 302 303 304 301 301 301 302 308 313 311 309 311 311 326 329 319 308 301 302 295 291 287 287 291 294 298 305 300 297 299 306 307 307 306 303 298 294 291 295 298 300 301 301 306 311 313 315 316 317 318 321 322 322 324 325 324 324 326 328
316 308 313 309 315 314 311 313 313 312 307 310 304 309 307 309 309 309 310 306 310 309 308 308 307 303 303 303 301 301 303 305 306 304 305 306 309 308 309 311 314 320 335 323 317 303 298 293 298 299 297 297 298 300 302 303 299 299 305 306 308 308 308 306 300 299 301 293 289 303 306 303 305 310 313 314 316 316 319 320 321 321 323 324 324 324 329 326
306 313 317 320 310 298 309 310 310 310 313 313 306 311 307 307 307 305 308 311 310 310 303 304 305 305 304 303 303 299 302 306 305 305 308 306 306 306 305 310 308 320 319 311 317 304 299 297 301 301 299 301 301 301 303 304 303 307 308 308 308 309 308 306 307 309 303 296 293 302 305 304 307 312 315 315 315 317 320 321 322 323 324 323 323 323 323 325
315 315 316 321 312 314 315 316 319 317 314 313 306 311 307 306 305 307 306 307 308 306 305 301 303 306 305 305 301 300 304 300 303 308 306 305 304 303 302 306 309 309 310 307 308 310 301 297 299 302 301 302 303 304 305 304 305 308 308 309 310 310 309 309 309 311 308 305 306 306 306 309 311 313 315 315 318 319 320 322 320 320 322 322 321 321 322 324
313 312 309 316 318 316 317 317 316 313 307 319 307 307 310 308 305 307 309 307 305 306 309 305 306 307 307 306 305 301 305 308 307 302 307 304 300 304 304 306 303 306 306 307 308 308 303 301 312 303 299 300 303 305 304 306 308 307 309 309 309 309 310 311 311 311 315 309 310 309 306 306 313 315 315 316 317 318 318 318 318 318 320 321 320 320 322 324
320 321 318 312 312 316 322 317 313 311 303 307 306 307 308 309 306 309 307 309 307 307 308 306 307 309 311 309 309 308 310 307 305 305 306 304 299 305 302 303 305 303 305 303 305 306 306 300 305 301 296 297 302 303 303 306 309 308 307 309 308 307 305 308 307 310 308 305 306 306 301 302 309 315 316 315 317 316 316 316 317 318 320 321 320 321 322 324
322 322 322 317 313 321 315 316 313 311 305 310 313 310 309 308 309 307 304 310 311 310 309 307 307 309 309 309 309 310 312 311 310 307 305 305 305 303 304 304 305 304 302 302 305 302 304 302 299 298 296 295 301 303 302 302 300 298 302 307 311 310 311 311 311 314 312 312 304 300 301 307 311 317 312 313 315 316 316 317 317 319 319 321 321 322 323 325
Wind_Speed
11 11 11 11 11 12 12 12 13 13 13 14 14 14 15 15 16 15 16 16 16 16 16 16 16 16 15 16 17 16 15 6 7 1 1 9 6 1 13 4 13 13 12 5 3 2 5 6 4 0 4 2 2 1 2 1 1 2 1 2 0 2 1 2 2 2 8 8 6 9 8 6 4 4 1 3 4 5 9 6 6 4 3 11 8 12 15 16
11 11 12 11 11 12 12 12 12 13 13 14 14 14 15 15 16 16 15 16 16 16 16 15 16 15 15 15 16 16 12 4 6 5 13 6 5 7 9 8 12 11 9 4 7 8 3 7 5 5 4 0 2 0 4 0 2 2 1 1 1 2 1 2 2 2 5 6 8 9 8 6 5 5 3 3 4 7 7 4 8 6 10 9 13 14 16 16
11 12 12 12 12 12 12 12 13 13 14 14 14 14 15 15 15 16 15 16 16 16 16 16 15 15 15 15 15 14 9 4 2 4 10 14 15 7 10 8 11 14 11 4 6 4 5 8 7 6 2 1 2 2 2 1 2 3 1 1 2 2 2 3 3 2 5 9 7 6 4 5 4 2 4 2 3 6 7 7 7 10 12 14 14 15 16 15
12 12 12 12 12 12 12 13 13 13 14 14 14 14 15 15 15 15 15 16 16 16 15 15 15 15 15 14 13 9 2 3 0 2 3 5 16 13 8 8 11 14 6 3 3 4 2 3 5 8 2 4 3 2 3 3 2 2 2 2 2 2 2 2 3 2 4 7 5 4 3 4 5 5 3 3 3 2 3 5 13 12 15 16 16 17 16 16
13 13 13 13 13 12 13 13 13 13 14 14 14 15 15 15 15 15 15 15 15 15 15 15 14 15 15 14 12 3 1 2 1 2 1 7 12 13 10 10 10 8 5 3 2 2 2 3 2 2 2 3 2 2 4 4 5 2 5 3 3 1 1 3 4 6 5 5 6 4 5 3 2 2 2 6 5 6 6 4 9 13 15 18 19 18 16 16
13 13 13 13 13 13 13 13 14 14 14 14 14 14 15 15 15 15 15 15 14 14 14 14 14 15 15 16 7 2 0 3 2 2 7 9 12 14 10 8 7 4 2 3 1 0 2 3 2 0 2 3 5 7 2 7 6 1 2 2 3 3 2 2 4 5 7 3 5 5 3 5 3 1 2 5 6 4 5 3 11 12 15 17 17 17 17 17
14 13 13 13 13 13 13 14 14 14 14 15 14 15 15 15 15 15 15 14 14 14 14 14 14 15 14 15 2 1 1 5 2 5 12 9 8 7 8 7 6 3 3 2 2 1 4 3 4 6 2 2 2 5 4 4 6 2 4 2 4 3 4 5 4 7 5 8 5 4 6 3 6 3 2 3 5 6 5 4 12 13 12 14 16 17 18 17
14 14 14 13 14 14 14 14 14 14 15 14 15 15 15 15 15 15 14 14 13 13 13 13 13 13 13 5 1 1 1 6 10 4 11 9 6 6 8 4 5 4 5 7 6 5 3 4 8 5 6 4 3 6 4 4 5 3 2 3 2 2 3 4 4 5 5 4 3 5 5 4 6 4 5 5 8 4 7 8 13 14 14 13 15 16 16 15
14 14 14 14 14 14 14 15 15 15 15 15 14 15 15 15 15 14 14 13 13 13 12 13 13 11 6 1 1 0 3 7 5 7 9 9 6 5 7 4 6 7 4 3 6 4 1 4 5 9 6 8 6 2 5 8 3 7 7 5 3 3 4 4 4 5 6 2 4 5 4 4 6 4 3 6 4 3 7 11 15 16 16 14 15 15 14 14
15 14 14 14 14 15 15 15 16 16 15 14 12 12 15 15 14 14 13 13 12 12 13 12 11 12 3 1 1 2 3 4 5 8 10 9 7 5 5 3 9 6 2 5 4 6 7 8 8 7 4 1 3 2 10 10 6 10 6 7 7 5 4 3 7 4 5 4 5 4 2 3 4 5 3 5 4 3 7 8 15 15 16 15 14 14 13 14
15 15 15 15 15 15 15 16 16 15 14 12 12 11 15 14 14 14 13 13 12 12 11 11 10 10 0 1 2 3 5 5 3 5 9 9 9 6 8 6 6 4 7 5 3 8 10 11 3 2 1 3 4 4 7 6 4 9 7 3 2 1 1 3 3 5 3 1 5 5 4 2 3 2 4 4 7 8 9 5 11 13 14 14 15 15 13 13
16 15 15 15 15 16 16 16 16 16 15 13 13 15 14 15 15 14 13 12 12 11 10 9 10 3 2 1 2 6 3 3 7 6 9 11 8 10 10 9 7 9 6 5 7 8 3 4 3 3 3 2 4 3 5 3 5 7 9 4 3 1 1 2 6 4 5 2 5 4 2 1 3 5 8 6 8 8 9 7 6 8 12 14 14 13 12 13
16 16 15 15 16 16 16 16 16 16 16 14 15 16 15 15 15 14 13 12 9 9 9 9 6 2 1 0 9 10 6 2 4 9 6 7 3 5 7 5 9 9 8 7 4 4 4 3 3 6 3 0 3 2 1 2 1 5 1 3 3 2 2 7 2 2 5 2 8 5 2 6 10 10 5 7 9 8 8 7 6 5 5 7 7 10 8 10
16 16 16 16 16 16 16 16 16 16 16 15 16 16 16 15 15 14 12 12 12 11 8 6 1 2 0 4 6 4 6 4 4 9 9 8 4 4 6 9 9 8 7 8 10 4 2 2 1 4 1 2 4 2 5 2 4 6 2 3 2 3 3 4 5 5 6 2 8 4 2 5 6 9 7 7 9 11 10 8 7 6 6 6 6 6 8 6
16 16 16 16 16 16 16 16 16 16 17 15 16 17 16 16 15 14 12 11 10 7 6 6 2 0 0 7 5 9 9 1 5 4 6 7 6 2 7 8 9 11 10 8 4 3 2 2 4 3 4 2 2 4 5 3 1 2 4 3 2 4 4 4 4 9 7 1 5 5 3 7 6 7 7 10 8 11 9 8 8 7 7 7 6 7 8 7
16 17 16 16 16 16 16 16 15 15 16 15 15 16 17 16 14 13 12 11 11 9 4 1 2 1 1 5 1 5 1 1 5 8 6 5 6 7 6 9 9 9 8 5 6 3 4 2 3 4 4 3 3 2 3 5 1 0 4 2 3 2 3 2 6 7 7 3 3 8 4 3 3 5 5 10 11 11 9 8 8 8 8 8 7 7 7 8
17 15 14 13 15 15 16 16 15 15 17 16 16 15 13 13 12 10 12 11 4 2 3 0 1 2 1 1 4 2 3 5 2 2 3 4 5 5 1 5 5 7 6 6 4 3 2 1 1 1 1 6 2 1 3 4 3 2 1 4 4 4 1 3 3 4 4 6 3 4 2 6 4 2 9 12 13 11 10 10 9 9 8 8 7 8 9 9
15 15 13 12 14 16 15 15 14 15 17 17 16 14 11 10 9 11 5 1 2 3 3 4 2 2 6 2 0 4 2 1 3 5 5 3 8 5 2 3 3 3 2 4 1 2 0 2 0 5 3 2 2 3 2 5 4 5 3 2 6 1 9 8 3 5 9 5 5 5 7 12 10 3 9 14 12 11 11 11 11 11 10 8 8 8 9 9
16 15 14 11 13 15 15 14 14 15 16 18 19 17 12 6 2 2 1 2 1 1 1 0 2 0 3 3 5 5 3 6 3 4 5 5 2 3 1 1 1 1 2 0 4 5 0 2 5 3 5 3 6 6 7 12 4 5 8 6 4 2 5 3 9 2 17 9 7 7 8 12 12 5 5 8 10 11 9 8 7 9 9 9 9 9 9 10
16 16 13 11 13 14 14 13 11 14 13 11 7 2 1 1 1 0 1 1 4 6 0 4 5 3 8 10 5 2 1 4 4 2 1 2 1 0 2 0 2 2 1 3 3 2 3 4 5 8 9 10 7 9 11 13 8 2 2 1 4 4 4 4 4 4 12 5 9 11 13 8 5 8 10 10 9 7 8 9 10 9 10 10 10 10 11 11
16 14 12 12 11 13 13 11 10 10 11 5 6 1 1 1 2 3 4 6 6 6 7 6 11 9 7 2 3 1 3 1 1 1 4 2 3 5 3 2 0 3 5 6 5 2 4 4 9 11 14 12 10 5 8 5 1 2 2 4 6 3 6 3 7 7 10 8 7 7 7 12 9 5 8 8 9 11 12 12 11 11 11 12 13 12 11 11
16 15 13 12 10 11 12 11 9 10 9 2 1 0 2 3 2 1 1 4 4 10 9 12 4 8 7 10 10 5 3 1 4 5 4 4 2 4 2 4 4 7 6 2 1 2 2 9 14 16 12 11 11 3 3 4 4 3 2 3 3 8 3 5 3 7 7 4 4 6 9 14 11 6 6 11 14 12 13 14 14 13 11 9 10 11 10 7
16 15 14 11 10 9 10 10 9 8 3 0 1 1 4 5 1 2 0 2 6 4 5 5 3 8 10 8 5 8 4 3 5 3 3 4 1 6 2 2 4 4 2 2 6 2 3 7 17 12 5 1 4 3 5 7 3 2 2 1 5 5 4 5 4 6 7 8 5 8 11 5 6 4 10 12 13 10 11 13 11 12 14 12 13 13 11 11
15 14 13 12 11 10 10 8 7 2 2 3 3 6 4 3 4 7 4 2 3 6 5 6 6 3 6 4 3 6 6 3 4 6 2 5 6 3 1 3 5 2 6 8 10 9 10 9 4 5 3 2 1 4 4 4 7 4 2 3 3 5 4 4 2 4 3 6 1 2 3 3 5 2 4 7 7 4 5 7 6 7 9 11 8 7 10 14
14 13 11 11 10 10 7 9 2 5 4 2 5 9 11 11 5 0 2 3 2 5 3 1 3 3 5 2 2 5 3 1 6 4 5 6 3 2 3 3 2 5 7 7 6 9 10 12 4 0 2 0 0 3 3 1 1 4 4 2 3 2 1 3 3 9 3 4 7 5 1 2 4 4 7 7 6 6 4 7 9 9 5 5 8 9 7 7
13 11 10 9 8 6 6 2 1 1 2 3 7 6 6 6 6 3 2 2 3 4 3 3 3 4 3 2 2 3 5 2 4 8 7 8 6 4 0 3 2 4 5 6 3 2 4 2 1 4 2 1 3 1 3 2 1 2 3 1 3 1 1 4 6 5 2 3 4 4 2 1 5 2 6 6 8 10 2 6 8 7 6 6 6 7 9 9
12 10 9 7 6 6 2 1 3 4 0 4 1 5 10 9 3 3 1 1 3 2 4 1 2 1 1 3 4 3 1 4 1 1 4 2 4 1 3 6 2 2 1 1 5 4 2 2 4 3 2 3 4 2 2 2 2 2 4 3 3 5 6 2 1 1 3 4 2 1 4 4 1 7 5 1 2 1 3 1 3 6 5 6 5 7 8 8
10 9 7 6 5 3 1 4 6 1 2 5 11 11 9 3 1 4 2 2 1 1 1 2 2 1 1 2 6 3 3 3 2 4 4 3 4 0 2 4 2 7 3 3 3 8 2 3 2 1 2 5 0 3 4 1 1 4 6 3 5 5 4 3 3 3 2 2 5 7 2 4 1 5 6 5 2 3 4 3 1 5 5 5 6 7 8 9
9 7 6 3 3 3 2 1 1 3 3 9 11 11 8 7 2 4 3 1 0 0 2 3 4 1 1 2 1 3 2 1 2 4 1 0 2 4 1 6 3 3 4 2 4 5 2 3 4 5 2 1 4 4 2 2 1 3 4 5 7 4 3 4 4 1 2 2 4 6 1 1 2 10 6 4 1 4 4 4 4 5 7 6 6 7 8 7
8 6 4 3 2 1 0 1 6 8 7 9 10 11 7 3 2 1 2 1 2 2 1 1 1 4 2 4 2 3 3 3 3 0 2 4 3 1 2 1 1 2 4 2 2 6 7 8 6 3 3 5 3 3 2 2 5 4 4 4 6 6 4 2 1 5 4 0 4 6 3 3 2 7 7 1 3 6 3 2 1 3 4 4 4 6 7 8
7 4 5 4 2 1 2 3 8 5 6 8 11 6 3 2 1 2 1 2 1 1 1 0 3 3 5 4 3 3 3 2 2 3 1 1 1 0 2 2 4 2 3 4 5 7 7 4 3 3 6 1 1 5 3 2 3 1 1 2 6 7 8 5 5 4 3 1 6 5 15 12 7 6 8 6 6 2 2 4 3 4 3 4 5 5 5 6
6 5 5 6 2 4 4 3 1 6 8 10 6 4 2 1 3 1 2 2 1 3 2 3 3 3 7 5 5 3 5 2 4 4 6 4 3 2 3 5 2 2 4 2 4 6 9 8 2 4 2 8 1 2 7 5 6 6 6 7 6 4 5 4 7 4 0 1 2 6 9 11 8 1 4 8 11 10 8 4 5 9 10 10 10 9 6 5
5 5 5 8 4 3 8 6 7 7 10 8 3 2 1 3 1 3 1 1 2 5 4 4 6 6 5 5 4 6 4 4 4 5 4 0 3 5 2 5 3 4 1 3 1 6 5 4 9 8 5 3 3 2 4 4 6 6 4 3 3 2 2 1 2 1 2 7 6 5 15 5 2 2 7 7 8 8 9 10 10 9 7 7 7 6 7 7
4 5 5 5 9 10 8 5 3 9 9 6 3 2 2 2 2 5 2 3 4 2 3 5 4 5 4 6 6 6 1 4 5 3 5 2 2 1 3 2 4 2 1 0 3 0 5 4 4 5 3 5 1 2 3 4 1 1 3 2 3 5 1 2 2 0 1 5 4 2 3 2 4 2 4 3 4 8 8 8 6 7 6 5 6 10 12 11
3 5 5 4 6 11 15 10 4 2 3 4 3 2 3 3 2 2 3 3 2 0 2 0 5 3 2 6 2 5 5 2 4 5 3 2 2 2 0 2 1 2 1 2 1 1 1 3 4 4 2 2 4 2 3 1 4 2 2 6 5 1 6 2 5 5 3 1 3 5 1 0 4 3 1 4 8 10 9 10 10 10 10 12 12 12 9 9
3 3 4 4 4 5 10 6 5 4 1 3 2 1 2 4 1 1 1 3 1 3 4 4 3 1 1 2 3 1 3 3 2 2 1 3 3 3 1 2 3 2 2 2 0 1 4 1 3 6 5 4 6 6 4 3 2 4 6 5 6 4 4 1 1 2 3 4 3 2 3 0 1 1 4 5 6 8 8 7 8 9 6 5 5 7 9 7
1 3 2 4 4 3 8 8 8 6 3 3 3 2 4 3 5 3 2 3 2 1 3 6 2 0 2 2 2 1 1 3 3 2 1 2 3 5 3 5 6 4 2 5 2 1 1 8 5 5 10 6 10 5 3 4 1 1 2 7 3 2 5 3 0 3 4 1 1 3 6 1 0 1 3 7 7 7 5 4 3 2 3 5 6 7 7 9
2 2 4 4 8 8 10 9 9 3 2 2 1 4 2 2 2 3 3 3 4 6 4 3 2 6 3 3 2 1 3 2 1 2 0 2 2 2 3 1 5 3 3 1 3 2 2 5 4 2 6 7 9 6 7 8 7 4 3 3 5 2 5 4 3 1 2 1 1 3 3 2 1 1 2 3 3 3 4 4 6 7 6 7 8 10 9 8
1 1 5 7 3 11 9 9 4 4 2 1 1 1 3 4 5 4 2 3 1 1 3 1 0 2 2 4 4 3 3 1 2 2 2 1 3 3 2 1 2 7 8 8 5 2 2 1 5 3 6 5 5 5 4 9 10 2 4 3 0 4 2 2 1 3 3 2 1 0 2 1 1 3 3 1 1 1 2 3 4 4 3 4 5 7 8 8
1 2 2 2 8 10 11 8 3 1 3 2 2 3 1 3 5 3 1 3 2 3 1 1 0 1 3 1 4 2 2 3 3 2 3 2 4 1 2 3 1 2 8 7 3 0 1 1 3 6 5 4 5 2 1 4 7 9 7 3 2 1 1 1 2 1 1 2 2 1 1 3 5 3 4 3 3 1 1 1 2 4 3 3 4 6 7 6
1 1 4 0 10 11 9 4 2 1 1 3 3 3 4 2 2 3 2 5 1 2 1 1 1 2 1 5 6 5 2 3 3 3 1 1 1 1 2 0 1 1 1 6 7 4 2 2 1 5 7 1 5 2 3 5 4 5 2 3 3 2 4 4 3 4 2 3 1 2 3 3 6 3 6 4 4 3 1 1 3 4 4 5 6 7 5 7
1 2 3 2 12 12 8 3 1 2 1 4 3 1 2 2 3 3 2 5 5 2 3 3 4 2 3 1 0 4 4 3 3 3 3 2 0 3 1 5 5 2 4 2 1 0 1 1 1 3 3 6 9 7 4 3 1 1 2 2 1 2 3 2 0 2 3 1 2 2 3 4 6 3 4 4 3 2 2 2 1 3 4 4 6 6 5 3
0 3 4 8 10 11 4 0 1 1 2 4 4 8 7 4 4 1 3 2 2 1 3 4 1 3 2 2 3 3 4 2 2 2 2 2 2 1 2 5 4 4 5 2 2 2 2 2 3 5 8 7 8 4 2 3 4 7 6 5 4 3 1 4 4 3 3 2 2 2 1 2 4 1 2 3 2 3 2 2 1 1 3 4 6 7 7 7
2 1 1 2 3 5 5 1 1 4 5 6 6 9 8 5 3 1 2 2 1 1 2 1 2 2 1 2 2 1 1 2 2 4 1 1 2 3 4 3 4 1 3 2 1 3 1 1 3 2 5 9 9 9 10 8 5 3 4 6 3 3 3 2 5 2 2 3 3 3 4 2 4 1 3 1 2 1 1 0 1 2 3 4 6 6 6 6
3 2 1 2 1 2 3 4 1 2 3 5 5 8 6 2 3 2 3 0 1 1 1 1 0 1 1 0 1 1 0 2 1 2 2 1 2 0 1 7 6 4 3 5 5 2 3 1 2 1 2 2 4 4 5 7 7 7 3 5 8 6 4 3 3 2 2 1 1 2 1 3 2 4 4 3 2 2 2 1 1 1 2 4 5 6 7 7
3 2 2 3 1 1 2 3 3 4 8 5 4 6 4 2 1 4 5 2 1 3 3 1 2 4 2 4 4 4 5 2 1 1 2 1 1 1 1 5 3 3 4 9 5 3 1 1 2 4 5 5 7 6 6 1 4 4 8 8 7 4 4 5 4 3 1 1 2 1 3 1 3 3 3 3 3 4 3 3 3 4 3 4 4 5 5 7
1 2 3 2 4 1 5 2 4 2 5 1 1 2 4 0 1 1 5 1 2 2 2 0 0 1 2 4 2 3 3 4 5 5 4 2 0 1 3 7 4 4 8 4 4 4 2 2 1 5 5 7 7 5 8 4 4 3 6 7 9 7 5 9 5 1 2 3 2 1 2 1 1 2 3 4 4 4 2 2 4 4 3 3 6 5 7 8
1 2 3 1 1 2 4 6 3 5 11 6 7 2 3 1 2 1 3 1 4 1 2 4 3 2 4 4 2 2 3 3 4 2 3 3 1 6 3 4 2 3 3 1 2 2 3 0 2 2 3 4 6 6 5 3 2 3 5 7 8 8 12 9 2 0 3 2 2 2 1 2 1 1 2 4 4 3 1 2 3 4 3 4 6 8 8 9
2 2 2 5 2 1 2 10 12 11 14 7 3 6 4 3 4 4 3 1 2 2 2 0 4 3 4 5 4 1 1 1 1 1 1 3 4 3 3 3 2 6 2 2 0 1 2 1 3 2 2 4 6 7 6 6 4 8 8 6 6 9 7 6 4 3 6 3 3 3 3 3 1 2 4 4 3 3 2 3 3 5 4 4 6 7 8 10
4 3 5 3 3 4 5 4 6 8 9 1 1 2 1 0 4 4 4 3 2 1 1 5 6 6 5 5 5 4 2 0 2 2 1 2 4 3 0 1 1 5 3 2 1 0 2 1 5 2 3 3 6 7 6 8 8 8 6 8 7 6 7 4 2 3 2 0 1 4 3 1 1 2 3 3 3 3 4 6 5 5 5 4 5 7 8 10
3 2 2 4 6 5 3 5 7 7 5 8 7 5 3 1 3 0 3 2 3 2 1 3 4 9 8 8 8 5 2 4 4 3 2 3 1 1 1 2 1 1 3 2 1 1 2 2 2 2 3 4 4 4 4 8 11 10 7 6 5 4 3 2 2 1 1 1 2 2 2 2 4 5 4 4 5 6 6 6 6 6 5 4 5 7 8 9
2 3 4 1 1 3 4 5 4 4 7 7 5 11 2 2 5 4 5 4 7 7 4 5 6 9 3 6 5 3 3 1 1 3 2 2 3 3 4 4 1 1 1 1 0 0 1 1 1 1 2 2 5 4 7 1 2 2 4 4 1 3 1 2 2 3 1 1 2 0 3 2 4 3 4 4 4 5 6 6 6 8 7 4 4 6 8 9
Wind_Direction
331 327 325 323 321 318 316 315 313 312 312 314 314 314 313 314 315 316 318 321 322 324 325 326 327 325 322 321 326 327 331 329 330 342 223 240 223 191 184 226 168 183 166 178 173 139 196 209 170 291 60 119 231 88 176 80 172 61 103 119 348 201 121 200 162 158 157 149 191 187 215 141 156 204 250 97 232 260 185 196 165 169 94 146 134 145 149 149
330 326 323 322 319 316 315 313 313 312 312 312 314 313 312 313 315 316 317 320 323 322 324 326 325 321 318 321 324 329 335 306 300 282 239 239 258 220 196 188 166 160 145 196 179 198 202 191 171 124 123 259 143 322 146 296 155 119 167 108 242 178 216 144 163 151 125 155 176 186 195 146 173 166 174 129 226 228 195 183 143 116 117 123 140 145 155 155
329 325 321 320 318 316 315 315 313 311 311 312 312 312 311 312 313 315 317 320 321 323 324 324 323 319 313 318 322 331 340 305 251 265 261 222 237 226 196 180 158 161 174 174 205 196 183 186 174 138 212 148 218 159 198 247 134 249 131 308 254 213 195 175 153 160 132 142 144 156 190 148 165 173 144 197 202 186 175 146 124 141 141 146 151 154 158 161
328 324 321 319 319 319 316 314 312 311 310 312 311 311 311 312 313 314 317 319 321 322 324 323 319 316 312 313 319 329 287 302 266 251 255 205 203 205 192 168 170 182 213 256 178 187 198 158 168 160 205 229 211 134 171 216 132 249 115 192 233 201 111 237 159 142 123 130 144 145 154 115 171 210 189 189 111 205 223 176 155 160 154 154 158 163 163 165
327 325 322 320 319 318 316 313 312 311 311 310 311 310 312 312 312 315 317 318 320 322 324 322 318 311 313 309 312 311 278 47 212 254 232 168 180 192 191 166 178 190 237 324 18 273 253 154 134 199 188 242 159 108 244 179 200 120 204 211 190 99 91 220 171 148 127 142 132 146 130 183 144 167 213 161 163 199 201 203 160 155 155 156 162 167 167 170
328 326 323 321 320 318 316 314 312 312 312 311 311 312 311 311 312 315 317 318 321 322 322 320 313 314 314 309 293 195 111 96 268 254 154 183 175 190 172 147 168 180 245 269 178 258 297 281 147 5 234 167 179 171 241 169 161 173 272 223 206 182 147 220 178 154 132 136 141 159 190 119 174 186 208 183 191 228 225 182 157 157 161 161 159 162 171 176
329 324 323 322 320 318 317 315 314 312 311 312 311 311 310 311 312 314 317 318 319 320 321 317 314 317 322 312 155 195 110 259 302 244 158 176 193 180 127 135 140 143 192 184 237 223 206 216 166 218 243 249 257 200 205 166 153 110 229 196 224 175 186 180 182 148 149 134 181 179 141 149 168 166 191 193 239 222 222 193 155 151 153 157 162 172 175 179
328 326 323 322 320 318 316 315 314 312 312 311 310 310 311 311 313 314 316 318 319 318 318 314 313 317 336 332 116 43 70 254 239 194 168 161 166 147 122 132 152 157 169 198 177 214 233 222 216 222 246 215 227 166 189 116 162 218 253 209 226 169 223 197 166 151 154 180 142 135 144 212 178 179 125 239 242 252 222 151 148 147 152 163 167 173 177 181
328 325 324 321 320 319 316 315 314 312 311 311 309 310 310 311 311 314 314 317 316 315 313 312 314 313 317 279 169 27 257 235 217 149 143 148 156 128 155 166 182 174 195 174 216 214 202 261 227 193 236 233 253 180 183 127 268 219 222 185 174 197 199 192 154 159 164 168 137 130 185 221 210 140 185 227 229 241 161 145 152 151 159 166 174 174 176 183
327 326 323 322 319 318 316 314 313 312 310 307 305 305 309 310 310 311 313 313 312 312 309 309 315 321 324 177 42 90 254 168 125 154 155 151 127 146 206 209 160 208 216 216 169 203 204 235 233 212 228 238 103 192 191 161 223 186 200 187 169 213 162 188 166 188 179 175 165 165 191 205 221 166 282 250 197 163 145 150 157 158 165 168 170 177 180 183
327 325 323 321 318 318 316 314 313 311 309 306 304 309 308 306 307 308 309 308 309 305 303 308 320 331 169 283 99 207 246 127 141 147 157 141 134 150 200 214 183 188 215 251 209 219 222 225 274 314 42 222 337 294 165 224 143 175 179 162 212 189 218 140 168 181 139 247 170 149 201 190 209 153 223 219 171 153 144 130 152 168 169 173 172 177 181 187
326 324 321 319 320 318 316 314 312 310 309 310 311 308 306 304 304 304 302 304 301 297 297 306 319 306 259 60 140 226 223 138 147 166 161 152 158 199 208 205 187 207 182 232 235 226 258 294 342 45 242 357 309 319 315 100 125 177 140 156 233 67 216 245 178 201 157 225 166 148 55 233 177 218 223 189 164 151 147 150 132 158 171 175 174 176 181 186
325 323 321 322 319 317 314 313 311 309 311 310 309 306 305 302 299 298 297 298 287 289 297 303 309 258 313 22 232 240 282 298 156 168 175 182 184 206 208 213 220 220 208 219 269 262 296 347 5 313 263 337 282 295 285 285 223 113 94 135 69 53 310 242 272 146 151 232 161 135 227 251 208 222 218 169 161 148 145 156 151 138 135 141 148 172 173 175
324 322 322 320 318 315 315 312 311 311 310 309 307 305 302 299 295 292 289 282 285 284 289 300 317 300 160 237 269 233 252 225 234 166 179 210 154 224 221 231 226 237 241 237 252 251 344 319 358 246 264 270 284 299 337 310 136 176 184 62 144 112 253 245 203 160 158 195 156 113 234 276 251 221 200 181 163 155 163 169 156 151 145 148 153 153 173 184
323 322 322 320 317 316 314 312 312 311 310 308 306 302 299 294 291 286 282 282 272 266 283 292 225 185 3 270 258 277 260 206 185 218 198 160 187 241 229 238 242 235 227 228 257 251 235 304 355 329 282 231 286 339 311 14 343 147 88 275 301 163 268 281 247 160 174 209 136 106 285 242 253 236 179 174 166 161 165 171 165 164 161 161 165 164 176 192
322 322 321 319 317 315 314 314 313 310 309 307 303 299 293 286 283 280 274 263 269 271 262 232 174 234 39 307 269 327 6 183 247 214 235 168 179 211 228 225 230 239 247 263 226 260 274 257 212 225 282 350 282 269 323 4 320 355 136 240 232 131 235 358 252 203 175 110 129 171 216 314 281 237 166 171 168 167 164 171 171 171 170 168 171 173 176 182
322 322 319 316 316 315 316 314 313 312 311 307 303 295 284 274 273 278 277 261 269 227 185 9 101 186 87 247 306 323 216 231 235 207 232 192 188 206 169 221 240 244 262 286 291 271 282 131 268 317 250 249 180 76 5 321 310 258 61 205 212 156 185 236 302 187 192 137 196 208 224 249 255 238 166 177 174 166 168 175 174 174 175 177 174 174 180 186
322 320 318 313 314 317 315 314 314 315 313 308 300 288 284 274 285 307 280 157 163 209 237 255 248 337 287 315 315 223 190 204 161 214 217 227 187 209 199 218 213 245 292 297 312 233 223 303 315 222 328 315 89 101 137 259 220 196 222 260 298 161 185 202 164 228 149 209 183 186 228 261 270 273 175 181 180 168 176 177 178 179 176 177 179 181 185 187
320 320 316 317 320 317 316 315 317 318 316 311 296 274 262 272 311 170 39 184 111 33 12 226 119 103 165 224 278 300 168 203 136 137 226 198 205 191 212 184 200 205 294 335 284 187 310 258 14 354 278 247 252 187 194 235 187 214 177 188 225 237 201 228 228 174 166 185 203 183 211 236 243 237 202 185 181 173 182 178 180 184 179 179 184 183 185 194
322 317 320 321 321 315 316 317 320 320 325 327 346 352 120 19 8 345 30 321 212 203 226 186 201 286 309 285 243 234 61 91 123 215 200 254 99 165 263 56 327 358 271 237 298 271 132 185 225 236 241 252 210 213 216 238 228 239 127 157 284 282 265 248 247 190 178 139 209 202 225 240 255 205 198 188 181 179 167 182 189 189 184 188 190 188 191 194
318 322 319 321 310 317 315 322 316 318 320 312 294 349 69 155 34 319 300 239 214 229 231 224 192 207 229 314 344 162 110 305 120 255 219 191 115 98 256 128 309 279 248 239 222 279 92 199 246 229 238 242 252 225 202 211 207 46 351 338 301 309 276 212 217 179 177 153 229 215 233 256 242 228 199 186 175 194 184 189 193 193 192 190 189 192 192 199
321 318 320 311 313 315 317 316 324 327 327 278 284 135 257 229 195 176 94 321 301 224 225 243 212 256 255 249 240 230 94 177 282 278 277 142 202 147 279 160 171 209 254 284 17 291 176 210 233 233 230 244 249 253 16 11 329 338 286 266 357 289 233 292 263 136 160 140 275 206 216 241 244 215 207 185 193 200 192 187 192 187 193 197 197 192 188 176
320 318 313 316 312 316 317 316 321 326 312 83 202 145 247 227 344 336 218 257 273 243 215 233 242 238 268 265 246 147 145 176 215 261 235 146 82 194 140 187 234 251 307 254 228 222 207 263 246 250 232 166 348 16 347 353 2 286 332 1 258 268 5 306 302 119 160 166 211 208 200 284 316 230 205 200 193 203 193 192 192 186 184 191 197 190 183 189
317 316 314 313 314 314 312 322 316 313 243 232 293 226 245 308 346 7 19 209 279 303 209 214 193 229 234 245 217 155 167 214 156 244 225 141 171 183 160 215 247 238 236 208 215 192 214 222 215 178 137 81 356 331 13 331 296 289 168 168 243 280 243 184 258 104 131 252 20 76 63 315 341 100 199 237 230 211 200 181 205 210 199 196 193 187 185 185
316 315 315 310 313 310 312 327 312 237 192 183 255 254 264 275 283 111 35 332 341 277 230 177 164 240 237 233 152 154 197 247 202 180 188 158 172 101 222 198 171 252 247 243 203 217 259 259 180 96 73 102 104 353 325 188 9 305 256 219 239 220 350 30 94 118 148 269 258 157 17 299 297 300 203 195 207 228 198 167 209 211 187 154 181 191 193 205
316 313 313 312 310 326 322 319 256 354 240 250 232 261 264 249 241 171 116 76 323 266 40 265 135 266 160 208 110 179 84 257 216 175 172 198 176 162 285 290 194 257 285 292 220 187 213 304 95 150 173 77 65 185 244 122 14 47 269 289 253 310 100 70 109 84 118 207 267 164 153 260 325 215 221 196 197 215 190 191 210 210 195 183 187 184 189 191
317 313 306 311 310 322 319 162 322 278 358 283 289 309 315 290 191 151 51 338 349 221 156 248 114 251 290 196 156 75 70 262 352 337 174 170 169 142 174 259 343 291 274 328 44 306 351 352 53 79 105 99 41 9 269 128 93 288 238 223 345 359 341 342 52 127 226 239 311 49 131 136 243 270 230 40 51 253 260 199 223 214 201 194 186 192 193 194
314 311 306 296 330 328 6 332 341 311 250 303 326 318 298 294 123 49 84 76 294 158 242 205 219 329 351 177 120 127 202 184 102 245 216 227 124 2 157 235 248 269 289 67 337 254 196 276 130 117 77 76 76 207 255 146 124 238 281 323 318 303 303 285 274 266 260 41 316 323 56 63 268 281 34 53 70 277 283 263 283 233 222 193 189 196 202 201
313 308 301 298 268 288 295 300 15 246 277 316 313 309 319 324 79 104 124 117 117 245 19 113 285 62 265 61 184 179 221 194 154 235 267 122 228 145 221 253 210 256 279 162 221 295 274 201 208 155 119 89 232 252 239 150 2 282 266 333 313 326 285 255 222 170 336 74 279 284 56 120 328 327 349 354 315 274 248 245 241 227 211 196 194 205 207 210
309 299 278 257 235 229 240 208 234 252 305 302 308 309 316 37 37 43 29 295 123 244 224 253 109 206 125 156 233 209 188 220 206 58 171 160 245 56 242 175 191 330 316 350 275 241 257 271 180 137 189 189 189 257 229 279 248 246 344 328 325 338 311 347 108 113 54 34 261 248 344 124 63 345 319 98 224 233 191 264 220 201 204 226 223 208 203 205
300 282 241 177 189 30 183 302 238 248 283 318 314 317 46 35 106 90 94 242 159 242 109 209 210 107 139 170 237 246 196 185 248 147 235 304 352 14 352 5 13 29 9 346 319 298 307 313 139 213 160 150 89 302 19 7 348 165 63 67 5 329 360 31 351 43 91 273 265 48 76 64 85 318 354 320 325 359 191 131 110 138 166 221 229 214 218 216
293 237 226 185 301 339 175 208 60 340 343 318 338 43 62 46 8 124 205 52 52 226 186 215 234 164 194 205 185 210 190 202 199 172 184 194 199 143 212 187 142 29 333 308 297 319 2 358 329 56 345 112 187 241 303 357 17 60 69 41 85 304 34 349 5 30 155 172 251 173 101 60 61 167 285 342 4 16 39 57 71 45 29 27 26 22 16 347
276 236 222 231 273 251 253 279 336 358 333 337 30 56 74 103 200 247 316 285 262 147 226 168 189 184 192 164 235 229 183 196 218 208 150 265 172 256 250 185 170 138 295 262 25 24 304 338 30 355 349 29 87 300 310 9 333 38 55 74 72 41 40 29 278 247 328 304 260 73 85 102 209 354 357 9 4 23 46 54 54 54 39 25 21 23 22 20
291 204 197 207 212 235 271 299 320 347 350 341 72 30 55 75 258 239 226 220 228 244 161 195 174 195 155 163 223 184 179 253 162 207 158 184 167 326 348 350 159 95 123 315 66 259 50 350 328 22 348 309 5 186 185 187 331 291 167 131 173 146 157 257 219 132 217 222 295 339 56 192 109 217 293 336 23 36 37 44 49 50 47 35 20 17 13 14
339 215 228 264 240 238 239 252 267 299 306 23 56 93 155 227 240 272 269 304 311 156 337 39 157 186 212 205 258 174 148 218 179 164 181 132 248 143 206 97 332 123 116 71 285 88 154 210 244 282 204 328 348 260 191 15 15 278 154 103 63 224 143 162 201 153 220 310 8 8 107 113 141 202 321 349 28 31 23 25 25 24 23 14 10 8 11 4
259 231 191 250 214 250 188 200 161 200 122 51 77 74 187 202 242 265 272 260 297 11 323 353 49 76 279 323 307 126 327 139 208 86 284 113 18 74 3 11 10 14 121 121 241 11 18 304 288 320 342 60 337 330 308 84 8 276 8 318 244 187 121 89 355 3 53 50 66 159 76 97 224 30 21 350 35 30 24 15 17 10 14 26 17 359 351 356
233 156 284 211 242 198 150 149 153 140 80 93 96 225 214 278 207 266 278 3 268 355 48 49 309 83 333 282 265 173 243 61 154 105 254 134 23 356 330 33 16 28 104 131 19 147 136 273 291 13 345 340 340 337 71 58 205 80 332 258 296 74 116 117 197 328 64 84 216 167 142 200 50 253 340 360 28 8 10 353 343 340 358 15 8 356 352 343
319 230 248 238 225 148 139 153 136 93 82 79 178 232 270 277 271 247 274 6 353 28 63 54 304 64 339 342 315 87 332 104 317 57 236 22 130 326 336 62 6 63 313 8 121 270 98 345 298 25 358 330 335 355 4 346 55 9 262 218 65 313 5 319 85 7 350 329 253 25 72 101 161 218 339 339 11 344 342 340 348 354 10 5 0 348 343 345
262 15 327 262 152 142 141 148 106 95 61 57 258 344 265 240 276 266 287 50 166 77 68 358 129 323 93 32 324 22 53 94 175 158 91 6 84 327 28 21 13 350 24 62 55 324 47 210 305 309 25 303 345 49 21 321 336 13 7 15 346 104 165 359 191 180 122 247 57 305 55 196 215 210 199 207 260 277 316 338 342 329 353 20 349 334 333 343
61 19 286 267 127 128 133 124 84 49 65 154 240 229 264 320 290 278 351 67 7 65 4 40 23 337 18 16 55 337 330 47 31 302 94 324 112 243 39 9 98 353 64 67 112 259 17 86 261 279 312 19 344 9 1 328 325 330 2 328 354 346 208 138 12 78 171 176 159 166 327 265 258 217 192 207 216 223 196 359 319 325 343 6 338 323 333 340
294 111 268 148 123 124 118 96 66 88 175 262 234 251 296 243 305 322 283 100 89 119 123 26 35 70 286 21 6 334 3 24 43 39 86 73 123 19 321 92 209 75 108 47 61 6 62 20 253 310 360 354 248 237 299 306 274 259 242 274 281 57 14 50 290 340 68 88 182 126 237 262 265 192 194 193 219 198 164 77 354 329 356 344 328 327 334 340
67 18 291 150 132 126 109 106 268 201 168 220 234 186 285 278 245 264 0 5 75 18 342 59 18 87 36 81 142 20 15 19 24 84 354 122 60 138 297 19 55 72 85 55 63 295 153 145 83 308 246 268 263 271 283 272 311 153 145 328 3 136 107 108 115 277 22 10 97 150 124 275 234 196 183 197 194 163 122 84 27 336 329 318 317 316 319 317
87 195 250 165 148 133 88 42 287 305 290 238 246 268 255 257 252 186 80 9 68 5 51 50 34 52 29 45 15 61 23 31 35 117 153 85 55 44 213 67 106 50 84 345 1 307 54 81 32 299 306 287 294 296 240 73 28 18 0 351 20 348 252 167 182 191 129 330 40 357 132 249 277 172 165 166 162 142 134 122 127 315 302 313 312 323 326 333
258 255 38 213 173 116 88 188 253 246 256 274 261 264 271 252 224 224 78 54 107 4 95 35 336 96 227 8 77 18 68 54 9 79 359 108 99 224 131 84 111 67 94 233 128 275 25 316 107 6 351 333 350 358 360 350 50 82 302 294 288 290 73 126 100 47 79 229 164 124 246 245 280 55 83 41 65 91 147 315 87 10 323 312 317 321 322 323
292 266 207 184 260 83 166 206 199 291 289 288 301 302 302 305 3 136 113 121 94 109 69 357 351 350 18 267 10 349 82 142 253 321 111 109 175 279 304 98 97 104 112 170 136 128 94 199 82 99 109 349 327 357 306 315 316 308 294 321 342 350 332 1 331 24 352 279 93 132 202 256 318 18 16 345 339 326 323 338 312 318 308 323 317 324 324 324
28 20 304 56 320 336 285 266 290 257 285 291 322 273 252 189 301 16 62 65 102 111 130 187 337 38 5 42 30 35 7 338 117 259 51 44 358 351 334 64 84 102 151 134 121 86 132 84 106 149 150 179 218 222 245 221 327 320 332 10 337 353 36 89 104 78 263 199 69 225 172 246 3 351 338 328 323 320 323 322 330 331 315 295 304 317 318 313
282 86 354 359 319 242 267 299 272 281 259 95 254 286 339 353 52 30 349 104 351 85 21 32 108 39 327 63 4 28 3 359 355 77 8 82 324 331 16 113 82 147 156 124 122 78 66 36 251 144 186 210 209 223 257 260 260 337 26 12 26 47 69 73 80 138 184 68 335 291 287 111 245 291 307 327 318 313 325 294 309 308 296 312 320 318 324 322
33 306 64 104 170 253 357 315 294 265 266 251 248 259 263 158 215 107 313 129 171 93 102 336 19 92 111 137 128 46 350 43 29 25 320 12 54 348 41 353 111 310 58 45 68 109 131 103 262 145 255 239 223 231 259 291 74 71 45 34 48 48 62 78 59 115 120 116 191 261 202 126 241 275 302 313 315 321 259 298 294 284 287 323 334 338 336 327
71 337 309 9 8 274 230 261 284 281 283 243 238 264 248 155 160 185 172 42 43 2 89 92 346 41 122 107 99 147 4 65 358 355 42 330 25 10 17 350 340 354 10 87 14 74 85 277 240 187 279 333 328 316 320 330 70 54 33 32 42 59 62 68 73 51 90 146 201 179 142 132 232 285 307 314 309 322 289 280 316 332 313 317 330 329 333 325
7 2 322 347 253 276 264 276 293 307 333 310 188 268 241 81 57 69 72 89 63 330 50 89 72 51 15 51 72 64 330 147 173 114 309 106 343 50 263 158 284 331 30 81 131 321 100 282 331 38 42 318 306 324 1 68 93 68 42 34 30 54 56 45 51 9 57 3 347 12 103 230 269 311 290 291 314 320 338 342 321 298 289 311 323 326 327 323
297 264 283 310 322 288 318 341 338 333 7 358 2 298 324 355 90 174 64 79 124 145 110 147 121 66 54 72 67 62 64 126 116 134 139 110 152 228 95 273 44 353 338 8 13 343 39 274 38 71 53 319 302 335 343 91 86 79 39 19 23 27 56 337 75 308 93 279 326 11 27 294 285 306 294 320 341 341 323 313 309 310 297 309 327 324 322 317
287 266 298 201 257 292 344 322 321 352 19 318 311 319 251 185 202 125 77 53 81 77 104 115 102 99 38 58 31 1 334 99 98 178 156 190 176 222 202 216 210 194 220 207 226 354 153 121 21 49 48 265 269 308 328 5 109 20 2 318 347 27 27 27 6 20 61 217 96 191 239 230 249 284 339 321 316 313 318 312 315 313 310 305 317 320 312 308